Jersey, United Kingdom

8:11 AM GMT on February 20, 2018 (GMT +0000)
Jersey

Weather History for EGJJ - January, 2014

Change the Weather History Date:

Friday, January 31, 2014

  Actual Average Record
Temperature  
Mean Temperature 44 °F -  
Max Temperature 50 °F 46 °F 53 °F (2004)
Min Temperature 37 °F 39 °F 30 °F (1997)
Degree Days  
Heating Degree Days 22    
Moisture  
Dew Point 42 °F    
Average Humidity 91    
Maximum Humidity 94    
Minimum Humidity 85    
Precipitation  
Precipitation 0.00 in - - ()
Sea Level Pressure  
Sea Level Pressure 29.50 in    
Wind  
Wind Speed 14 mph ()    
Max Wind Speed 30 mph    
Max Gust Speed 40 mph    
Visibility 3.9 miles    
Events Rain    
Averages and records for this station are not official NWS values.
T = Trace of Precipitation, MM = Missing Value Source: Averaged Metar Reports

Daily Weather History Graph

Daily Weather History Graph

Search for Another Location

Airport or City:

Trip Planner

Search our weather history database for the weather conditions in past years. The results will help you decide how hot, cold, wet, or windy it might be!

Date:

Astronomy

Jan. 31, 2014 Rise Set
Actual Time 7:41 AM GMT 5:03 PM GMT
Civil Twilight 7:07 AM GMT 5:37 PM GMT
Nautical Twilight 6:28 AM GMT 6:16 PM GMT
Astronomical Twilight 5:51 AM GMT 6:53 PM GMT
Moon 7:33 AM GMT (1/31) 6:20 PM GMT (1/31)
Length of Visible Light 10h 30m
Length of Day
9h 21m
New Moon, 1% of the Moon is Illuminated
Jan 31
New Moon
Feb 6
First Quarter
Feb 14
Full
Feb 22
Last Quarter
Mar 1
New

Hourly Weather History & Observations

Time (GMT) Temp. Windchill Dew Point Humidity Pressure Visibility Wind Dir Wind Speed Gust Speed Precip Events Conditions
12:00 AM 40 °F - 38 °F 88% 29.67 in 28 mi South 5.8 mph - -   Partly Cloudy
1:00 AM 41 °F - 39 °F 88% 29.68 in 25 mi SSE 6.9 mph - -   Partly Cloudy
2:00 AM 43 °F - 41 °F 90% 29.68 in 28 mi South 4.6 mph - -   Partly Cloudy
3:00 AM 41 °F - 39 °F 90% 29.68 in 25 mi South 6.9 mph - -   Partly Cloudy
3:50 AM 41.0 °F 36.4 °F 39.2 °F 93% 29.65 in 6.2 mi South 6.9 mph - N/A   Partly Cloudy
4:00 AM 40 °F - 39 °F 93% 29.67 in 25 mi South 5.8 mph - -   Scattered Clouds
4:20 AM 41.0 °F 35.8 °F 39.2 °F 93% 29.65 in 6.2 mi South 8.1 mph - N/A   Scattered Clouds
4:50 AM 42.8 °F 37.5 °F 41.0 °F 93% 29.65 in 6.2 mi SSE 9.2 mph - N/A   Mostly Cloudy
5:00 AM 41 °F - 39 °F 89% 29.66 in 9 mi SSE 9.2 mph - -   Mostly Cloudy
5:20 AM 42.8 °F 36.2 °F 41.0 °F 93% 29.65 in 5.0 mi SSE 12.7 mph - N/A   Mostly Cloudy
5:50 AM 42.8 °F 36.6 °F 41.0 °F 93% 29.65 in 2.8 mi South 11.5 mph - N/A   Mostly Cloudy
6:00 AM 42 °F - 40 °F 91% 29.67 in 3 mi SSE 11.5 mph - -   Mist
6:20 AM 41.0 °F 34.7 °F 39.2 °F 93% 29.65 in 1.9 mi SSE 10.4 mph - N/A   Scattered Clouds
6:50 AM 42.8 °F 36.6 °F 41.0 °F 93% 29.65 in 1.6 mi South 11.5 mph - N/A   Mostly Cloudy
7:00 AM 42 °F - 40 °F 92% 29.67 in 2 mi SSE 12.7 mph - -   Mist
7:20 AM 42.8 °F 36.6 °F 41.0 °F 93% 29.65 in 2.2 mi South 11.5 mph - N/A   Mostly Cloudy
7:50 AM 42.8 °F 35.8 °F 41.0 °F 93% 29.65 in 2.8 mi South 13.8 mph - N/A   Mostly Cloudy
8:00 AM 43 °F - 40 °F 87% 29.65 in 3 mi South 15.0 mph - -   Mist
8:20 AM 41.0 °F 34.3 °F 39.2 °F 93% 29.62 in 3.1 mi South 11.5 mph - N/A   Scattered Clouds
8:50 AM 42.8 °F 35.8 °F 41.0 °F 93% 29.62 in 3.7 mi South 13.8 mph - N/A   Scattered Clouds
9:00 AM 43 °F - 41 °F 88% 29.65 in 4 mi South 17.3 mph - -   Haze
9:20 AM 42.8 °F 35.8 °F 39.2 °F 87% 29.62 in 3.7 mi South 13.8 mph - N/A   Scattered Clouds
9:50 AM 42.8 °F 35.1 °F 39.2 °F 87% 29.62 in 4.3 mi South 16.1 mph - N/A   Partly Cloudy
10:00 AM 43 °F - 40 °F 85% 29.63 in 4 mi South 18.4 mph - -   Haze
10:20 AM 42.8 °F 34.8 °F 41.0 °F 93% 29.59 in 5.6 mi South 17.3 mph - N/A   Partly Cloudy
10:50 AM 42.8 °F 35.1 °F 41.0 °F 93% 29.59 in 5.6 mi South 16.1 mph - N/A   Scattered Clouds
11:00 AM 43 °F - 40 °F 86% 29.60 in 6 mi South 21.9 mph - -   Haze
11:20 AM 44.6 °F 35.5 °F 41.0 °F 87% 29.56 in 5.6 mi South 25.3 mph - N/A   Mostly Cloudy
11:50 AM 42.8 °F 34.0 °F 41.0 °F 93% 29.56 in 5.6 mi South 20.7 mph - N/A   Mostly Cloudy
12:00 PM 43 °F - 41 °F 88% 29.56 in 6 mi South 24.2 mph - -   Haze
12:20 PM 42.8 °F 33.8 °F 41.0 °F 93% 29.53 in 5.6 mi South 21.9 mph 33.4 mph N/A Rain Light Rain
12:50 PM 42.8 °F 33.8 °F 41.0 °F 93% 29.50 in 5.0 mi South 21.9 mph - N/A Rain Light Rain
1:00 PM 44 °F - 42 °F 89% 29.50 in 5 mi South 24.2 mph - - Rain Light Rain
1:20 PM 44.6 °F 35.3 °F 41.0 °F 87% 29.47 in 5.6 mi South 26.5 mph - N/A   Mostly Cloudy
1:50 PM 44.6 °F 36.1 °F 42.8 °F 93% 29.44 in 3.7 mi South 21.9 mph 33.4 mph N/A Rain Rain
2:00 PM 44 °F - 42 °F 89% 29.46 in 4 mi South 25.3 mph - - Rain Rain
2:20 PM 44.6 °F 36.1 °F 42.8 °F 93% 29.42 in 3.1 mi South 21.9 mph - N/A Rain Rain
2:50 PM 46.4 °F 37.9 °F 44.6 °F 93% 29.44 in 3.1 mi South 25.3 mph 39.1 mph N/A Rain Rain
3:00 PM 45 °F - 43 °F 91% 29.44 in 3 mi South 25.3 mph - - Rain Rain
3:20 PM 46.4 °F 38.3 °F 44.6 °F 93% 29.42 in 2.5 mi South 23.0 mph - N/A Rain Rain
3:50 PM 44.6 °F 35.3 °F 42.8 °F 93% 29.39 in 3.1 mi South 26.5 mph - N/A Rain Rain
4:00 PM 46 °F - 44 °F 89% 29.40 in 3 mi South 24.2 mph - - Rain Rain
4:20 PM 46.4 °F 38.3 °F 44.6 °F 93% 29.39 in 3.7 mi South 23.0 mph - N/A Rain Rain
4:50 PM 46.4 °F 38.1 °F 44.6 °F 93% 29.36 in 2.5 mi South 24.2 mph - N/A Rain Rain
5:00 PM 46 °F - 44 °F 91% 29.37 in 2 mi South 24.2 mph - - Rain Rain
5:20 PM 46.4 °F 38.5 °F 44.6 °F 93% 29.36 in 3.7 mi South 21.9 mph 36.8 mph N/A Rain Rain
5:50 PM 46.4 °F 39.8 °F 44.6 °F 93% 29.36 in 3.7 mi South 16.1 mph 32.2 mph N/A Rain Rain
6:00 PM 47 °F - 45 °F 90% 29.36 in 4 mi South 25.3 mph - - Rain Rain
6:20 PM 48.2 °F - 44.6 °F 87% 29.33 in 5.0 mi South 28.8 mph - N/A Rain Light Rain
6:50 PM 48.2 °F - 46.4 °F 93% 29.33 in 3.7 mi South 24.2 mph 38.0 mph N/A Rain Rain
7:00 PM 48 °F - 46 °F 91% 29.32 in 4 mi South 29.9 mph - - Rain Rain
7:20 PM 48.2 °F - 46.4 °F 93% 29.30 in 3.1 mi South 26.5 mph - N/A Rain Light Rain
7:50 PM 48.2 °F - 46.4 °F 93% 29.30 in 3.7 mi South 27.6 mph - N/A Rain Light Rain
8:00 PM 48 °F - 47 °F 93% 29.29 in 4 mi South 28.8 mph - - Rain Light Rain
8:20 PM 48.2 °F - 46.4 °F 93% 29.27 in 2.5 mi South 26.5 mph 40.3 mph N/A Rain Light Rain
8:50 PM 50.0 °F - 48.2 °F 94% 29.27 in 2.5 mi South 25.3 mph - N/A Rain Light Rain
9:00 PM 49 °F - 48 °F 93% 29.27 in 2 mi South 27.6 mph - - Rain Light Rain
10:00 PM 50 °F - 48 °F 92% 29.21 in 3 mi South 28.8 mph - - Rain Light Rain
11:00 PM 50 °F - 49 °F 93% 29.19 in 4 mi South 24.2 mph - - Rain Light Rain